Weather History for Astoria, OR

Change the Weather History Date:

Tuesday, January 1, 2013

  Actual Average Record
Temperature  
Mean Temperature 38 °F 43 °F  
Max Temperature 42 °F 49 °F 60 °F (1981)
Min Temperature 33 °F 37 °F 14 °F (1979)
Degree Days  
Heating Degree Days 28 22  
Month to date heating degree days 22  
Since 1 July heating degree days 2128  
Cooling Degree Days 0 0  
Month to date cooling degree days 0  
Year to date cooling degree days 0  
Moisture  
Dew Point 31 °F    
Average Humidity 78    
Maximum Humidity 92    
Minimum Humidity 67    
Precipitation  
Precipitation 0.00 in 0.34 in 2.35 in (1936)
Month to date precipitation 0.34  
Year to date precipitation 0.34  
Sea Level Pressure  
Sea Level Pressure 30.36 in    
Wind  
Wind Speed 9 mph (East)    
Max Wind Speed 14 mph    
Max Gust Speed -    
Visibility 10 miles    
Events      
T = Trace of Precipitation, MM = Missing Value Source: NWS Daily Summary

Daily Weather History Graph

Daily Weather History Graph

Search for Another Location

Airport:

Trip Planner

Search our weather history database for the weather conditions in past years. The results will help you decide how hot, cold, wet, or windy it might be!

Date:

Astronomy

Jan. 01, 2013 Rise Set
Actual Time 7:58 AM PST 4:40 PM PST
Civil Twilight 7:23 AM PST 5:15 PM PST
Nautical Twilight 6:45 AM PST 5:53 PM PST
Astronomical Twilight 6:09 AM PST 6:29 PM PST
Moon 9:34 PM PST (1/1) 9:58 AM PST (1/1)
Length of Visible Light 9h 51m
Length of Day
8h 42m
Waning Gibbous, 82% of the Moon is Illuminated
Jan 1
Waning Gibbous
Jan 4
Last Quarter
Jan 11
New
Jan 18
First Quarter
Jan 26
Full

Hourly Weather History & Observations

Time (PST) Temp. Windchill Dew Point Humidity Pressure Visibility Wind Dir Wind Speed Gust Speed Precip Events Conditions
12:55 AM 33.1 °F 26.1 °F 30.9 °F 92% 30.38 in 10.0 mi East 8.1 mph - N/A   Clear
1:55 AM 35.1 °F 26.9 °F 32.0 °F 89% 30.42 in 10.0 mi ENE 11.5 mph - N/A   Clear
2:55 AM 35.1 °F 28.6 °F 32.0 °F 89% 30.40 in 10.0 mi East 8.1 mph - N/A   Clear
3:55 AM 35.6 °F 28.0 °F 32.0 °F 87% 30.39 in 10.0 mi ENE 10.4 mph - N/A   Clear
4:55 AM 34.0 °F 26.0 °F 30.9 °F 89% 30.39 in 10.0 mi East 10.4 mph - N/A   Clear
5:55 AM 34.0 °F 25.5 °F 30.0 °F 85% 30.40 in 10.0 mi East 11.5 mph - N/A   Clear
6:55 AM 33.1 °F 26.1 °F 28.9 °F 85% 30.40 in 10.0 mi East 8.1 mph - N/A   Clear
7:55 AM 33.1 °F 25.5 °F 28.9 °F 85% 30.40 in 10.0 mi East 9.2 mph - N/A   Clear
8:55 AM 34.0 °F 28.0 °F 28.9 °F 82% 30.41 in 10.0 mi East 6.9 mph - N/A   Clear
9:55 AM 36.0 °F 29.0 °F 30.9 °F 82% 30.43 in 10.0 mi ENE 9.2 mph - N/A   Clear
10:55 AM 37.9 °F 29.6 °F 30.9 °F 76% 30.41 in 10.0 mi East 13.8 mph - N/A   Clear
11:55 AM 39.9 °F 32.9 °F 32.0 °F 73% 30.39 in 10.0 mi ENE 11.5 mph - N/A   Clear
12:55 PM 42.1 °F 37.1 °F 33.1 °F 70% 30.37 in 10.0 mi ENE 8.1 mph - N/A   Clear
1:55 PM 42.1 °F 35.7 °F 33.1 °F 70% 30.34 in 10.0 mi East 11.5 mph - N/A   Clear
2:55 PM 42.1 °F 37.7 °F 32.0 °F 67% 30.34 in 10.0 mi East 6.9 mph - N/A   Clear
3:55 PM 39.9 °F 35.8 °F 33.1 °F 77% 30.34 in 10.0 mi ENE 5.8 mph - N/A   Clear
4:55 PM 37.9 °F 30.9 °F 32.0 °F 79% 30.33 in 10.0 mi East 10.4 mph - N/A   Clear
5:55 PM 37.0 °F 29.3 °F 30.9 °F 79% 30.32 in 10.0 mi East 11.5 mph - N/A   Clear
6:55 PM 37.0 °F 29.8 °F 30.9 °F 79% 30.30 in 10.0 mi East 10.4 mph - N/A   Clear
7:55 PM 36.0 °F 29.0 °F 30.0 °F 79% 30.30 in 10.0 mi East 9.2 mph - N/A   Clear
8:55 PM 36.0 °F 30.3 °F 28.9 °F 76% 30.29 in 10.0 mi East 6.9 mph - N/A   Clear
9:55 PM 35.1 °F 30.1 °F 28.0 °F 76% 30.27 in 10.0 mi East 5.8 mph - N/A   Clear
10:55 PM 37.0 °F 29.8 °F 28.0 °F 70% 30.27 in 10.0 mi East 10.4 mph - N/A   Clear
11:55 PM 37.0 °F 29.8 °F 27.0 °F 67% 30.27 in 10.0 mi East 10.4 mph - N/A   Clear